Location: Prosper
(33.2362°N, 96.8011°W)
Time: 02:03:08
(UTC+00:00)

Nadezhda 4 Rocket - Pass Details

Date: 03 December 2021
Orbit: 950 x 992 km, 82.9° (Epoch: 17 January)

Event Time Altitude Azimuth Distance (km) Brightness Sun altitude
Rises 12:11:37 0° 181° (S) 3,612 7.2 -13.0°
Reaches altitude 10° 12:14:05 10° 180° (S) 2,673 6.5 -12.5°
Maximum altitude 12:20:12 80° 94° (E) 979 4.1 -11.3°
Drops below altitude 10° 12:26:24 10° 9° (N) 2,714 6.2 -10.1°
Sets 12:28:56 0° 8° (N) 3,671 6.9 -9.6°
